Theta_e
334 336 338 336 336 338 337 338 339 341 343 343 343 344 344 343 342 343 346 345 343 342 342 340 339 338 338 336 334 334 334 336 335 337 337 335 338 337 340 339 340 341 341 342 342 340 340 341 340 338 336 334 334 339 337 333 337 337 337 339 338 337 337 339 338 337 332 332 334 334 335 337 336 336 334 334 333 332 332 331 331 331 333 334 335
333 334 336 336 335 338 338 338 338 338 339 340 340 340 341 342 343 345 345 343 343 344 342 341 341 336 335 334 333 332 331 331 331 336 337 336 338 338 338 340 340 340 340 341 341 340 340 339 338 336 337 339 340 340 339 334 336 338 339 337 339 335 334 335 337 336 329 325 324 326 328 331 335 336 333 331 332 330 332 332 331 331 330 331 332
330 332 335 335 336 337 337 339 339 339 341 340 341 340 340 342 344 347 346 343 343 344 343 340 341 341 338 335 333 331 334 337 333 333 336 334 338 337 338 338 340 338 340 340 339 339 340 340 339 340 341 339 338 338 338 337 337 337 337 336 334 336 334 336 337 335 325 327 329 324 319 322 327 331 331 330 330 332 331 329 330 328 327 327 329
329 332 334 335 336 337 338 339 340 341 340 342 342 341 341 342 345 345 346 345 344 342 342 342 343 344 343 340 338 334 333 336 335 336 337 335 334 335 336 337 337 337 339 339 339 339 340 340 340 340 339 340 339 337 337 337 338 337 336 336 336 332 331 332 336 336 333 327 320 320 321 319 314 316 323 326 329 328 326 327 326 325 326 326 326
330 332 334 335 336 336 338 339 340 340 341 338 342 341 341 341 344 345 345 344 343 344 345 345 344 342 340 341 339 337 335 332 330 331 334 334 334 335 334 336 335 334 336 338 340 340 340 340 340 340 339 340 339 338 337 337 338 338 337 336 336 332 329 332 334 337 335 337 327 322 318 317 317 321 322 324 327 324 322 324 325 324 324 324 324
333 332 333 335 335 338 339 340 339 338 338 341 342 342 342 341 342 345 345 344 344 346 346 344 341 338 335 331 329 329 328 328 326 326 328 331 329 335 335 334 333 334 333 334 335 337 340 340 340 338 339 338 338 338 337 336 337 336 336 335 334 334 332 329 330 334 336 336 337 333 329 323 320 320 320 314 324 323 322 321 322 322 322 321 322
334 335 334 334 335 336 335 339 338 339 336 333 331 333 337 340 340 343 344 344 345 346 346 343 340 337 335 332 331 331 329 330 331 330 330 330 332 333 331 335 333 333 333 334 335 334 334 334 333 332 331 332 334 334 334 335 332 334 337 335 333 333 333 329 330 330 333 334 335 336 335 331 329 323 319 319 315 317 319 319 319 320 320 320 319
333 334 335 336 337 336 336 332 324 323 325 327 325 323 323 323 325 330 335 339 343 345 343 342 339 337 336 334 333 330 330 331 331 330 331 329 329 328 328 328 331 332 332 332 333 332 333 332 332 331 328 329 327 329 330 330 332 336 338 336 335 334 334 330 329 330 328 329 333 332 330 330 330 330 325 320 318 312 311 316 319 321 320 320 319
334 332 333 336 338 338 331 323 325 325 326 326 327 327 324 323 323 322 323 326 331 338 340 340 339 337 336 334 331 332 332 330 330 328 327 329 328 328 327 325 328 331 332 332 332 331 331 330 331 330 330 329 328 328 331 331 334 338 337 336 334 333 332 333 332 329 329 328 330 331 330 328 328 328 329 327 319 312 310 312 313 318 319 318 318
334 333 334 337 337 337 328 328 329 331 328 326 326 326 324 324 323 322 322 323 326 329 333 336 338 335 334 333 333 330 330 329 328 326 327 328 327 327 327 326 326 328 332 331 331 330 329 330 329 331 333 329 328 330 332 333 335 336 337 337 336 334 335 334 332 331 330 331 331 330 329 327 327 326 324 324 319 317 311 309 312 313 311 314 318
330 331 334 337 337 339 330 331 332 328 325 325 324 325 325 324 323 323 324 325 325 326 330 332 334 334 332 334 334 331 330 329 327 327 325 326 325 326 326 325 326 326 328 331 331 330 330 330 330 331 332 331 328 329 331 330 333 335 336 336 336 334 333 333 333 332 332 331 330 329 327 325 323 320 320 319 317 314 312 312 313 312 312 312 314
330 330 331 334 334 333 329 329 325 321 321 323 324 323 323 324 325 324 324 324 324 325 328 330 332 333 334 333 333 332 331 329 328 326 325 324 324 323 324 324 325 326 328 328 329 329 329 329 332 331 329 330 328 330 330 330 332 332 333 336 335 334 334 333 333 332 331 331 331 328 325 323 322 320 319 318 315 315 315 313 311 312 312 312 313
328 329 330 330 331 331 328 326 322 319 321 322 322 322 322 322 323 324 324 324 324 325 327 329 330 331 333 333 333 334 331 330 329 327 326 323 322 322 322 321 322 324 325 325 327 328 327 328 329 327 328 329 329 327 329 330 330 330 332 334 335 334 333 333 331 333 332 329 324 323 318 317 317 317 317 316 316 317 316 312 312 313 311 311 313
327 327 328 329 329 329 328 326 325 324 321 322 323 322 322 322 322 323 323 324 322 324 325 327 329 330 331 332 330 331 329 330 328 326 325 323 322 322 322 322 323 325 325 325 325 326 327 329 329 329 329 329 329 329 329 327 327 324 328 330 331 333 333 330 328 327 326 324 323 318 317 315 315 316 316 315 315 315 313 313 313 314 313 310 312
326 326 325 327 328 329 328 328 327 326 322 323 324 324 322 321 321 321 322 323 323 324 325 325 326 328 329 331 331 331 330 329 328 326 326 324 323 323 323 323 323 325 323 326 326 327 328 328 328 327 328 329 329 328 327 327 327 325 324 326 326 326 324 323 322 323 322 320 321 317 315 314 314 315 315 314 313 316 316 315 314 311 310 310 309
323 324 325 326 328 328 328 328 328 326 324 324 326 327 324 322 321 321 323 323 323 324 324 325 326 328 331 331 331 330 329 329 326 325 326 326 325 323 324 326 325 324 325 326 326 326 326 325 325 325 325 325 326 325 325 325 325 323 322 323 321 321 322 321 320 321 321 320 318 317 316 314 317 315 317 317 315 316 317 316 316 314 309 307 310
323 323 324 325 326 327 327 328 326 325 324 325 327 328 327 323 322 322 323 323 323 324 324 324 326 329 330 331 332 330 329 328 327 328 327 327 325 325 327 326 326 325 325 327 325 327 326 325 323 323 323 323 323 323 322 322 322 320 319 318 319 319 319 318 318 318 319 318 319 318 316 316 317 319 317 317 317 317 317 317 317 315 314 310 308
322 323 324 325 326 328 327 328 327 327 326 325 326 331 329 325 324 323 323 322 323 324 325 326 327 329 328 328 327 326 327 327 326 325 324 324 323 322 322 324 324 324 324 325 324 324 323 322 321 321 321 321 321 320 319 319 319 317 317 316 316 317 316 317 316 316 317 318 318 318 318 317 320 319 319 321 320 319 315 315 314 316 315 312 310
320 322 323 324 325 326 323 323 323 324 326 326 327 330 329 327 326 325 324 324 324 324 325 327 328 328 328 329 328 327 327 326 326 325 326 324 324 322 321 323 324 322 322 323 322 320 321 320 319 317 318 318 319 319 318 317 317 315 315 314 315 315 314 315 317 317 317 318 319 318 319 317 320 319 319 319 320 319 317 316 315 317 317 317 314
319 320 321 322 322 323 323 324 323 324 324 325 327 327 327 327 325 324 325 326 325 325 326 326 326 328 328 328 328 327 325 326 328 326 322 321 322 325 323 323 323 322 322 321 320 319 319 319 317 316 316 316 315 316 316 316 316 316 314 313 316 315 313 314 315 317 316 318 318 318 317 317 318 317 318 318 318 320 320 317 318 318 317 318 316
320 320 321 322 324 325 325 326 325 324 324 324 325 327 327 327 325 323 323 324 324 325 325 325 325 327 327 326 326 324 324 326 326 324 322 323 326 324 323 323 322 322 322 320 320 319 318 318 317 316 316 315 314 315 316 316 316 316 315 315 316 315 314 314 315 316 317 317 316 316 316 316 318 317 316 317 316 317 318 318 318 316 316 317 316
318 319 320 320 322 323 324 325 325 325 324 325 326 326 326 326 325 324 323 322 323 324 323 324 324 327 326 328 327 324 322 325 326 325 325 326 326 324 325 324 323 322 322 318 318 319 320 318 317 317 318 317 315 315 316 317 315 316 316 316 316 315 314 314 315 313 315 316 317 315 313 315 316 314 316 313 314 314 314 314 315 316 313 315 316
312 314 316 317 318 320 320 323 324 325 325 326 326 327 327 327 326 325 324 324 325 324 325 327 325 326 325 326 327 326 322 323 325 325 326 324 325 326 325 324 322 322 323 320 319 320 319 318 318 318 318 318 318 316 318 318 318 317 316 317 317 317 316 316 316 314 313 314 315 315 315 315 316 316 316 316 315 314 314 313 315 314 314 313 313
312 313 313 314 316 317 318 319 321 323 325 325 326 326 327 327 327 326 326 326 327 327 327 328 326 326 326 325 325 325 323 322 325 326 327 327 326 326 325 324 323 323 319 324 323 319 319 319 318 318 318 319 318 319 318 317 317 318 318 318 318 319 318 318 317 316 315 315 316 316 316 317 316 316 316 316 316 316 315 315 315 315 315 312 315
311 311 311 313 313 313 313 315 318 320 322 323 323 324 326 326 327 326 327 327 327 327 327 326 326 327 327 326 327 326 326 325 326 326 328 328 327 327 326 324 325 323 322 322 322 320 319 319 319 317 317 318 319 318 318 319 319 319 319 319 319 319 320 319 319 318 317 318 317 317 318 317 317 317 317 316 317 316 315 315 314 314 313 314 314
308 309 310 310 310 311 312 314 314 317 320 321 322 323 324 324 325 327 325 326 326 327 327 327 327 326 326 327 327 326 325 325 325 326 327 327 327 327 326 326 325 323 323 322 320 320 319 318 318 317 317 317 318 318 318 318 319 320 321 321 321 320 320 319 319 319 319 319 319 318 319 319 318 318 318 318 318 317 315 315 314 313 313 313 314
307 308 308 309 309 310 310 312 313 315 317 319 320 321 322 323 323 323 324 325 326 326 327 327 327 327 327 326 326 326 326 326 326 327 328 326 326 327 326 325 325 325 324 323 321 320 320 319 318 318 318 317 317 317 319 320 321 322 323 323 323 324 323 324 322 321 321 321 321 320 320 320 319 319 319 319 319 318 316 316 315 315 313 312 313
306 307 307 306 307 308 309 310 312 312 313 315 316 319 321 322 322 323 324 324 324 326 325 325 325 326 326 326 328 327 327 326 327 327 327 327 326 326 326 326 325 325 324 323 322 321 321 320 320 320 320 320 320 319 320 321 322 323 323 323 324 325 324 324 324 324 324 322 321 321 321 320 320 320 320 320 319 318 319 318 317 317 315 313 312
304 304 305 305 305 306 307 307 308 310 311 312 313 314 317 320 322 323 324 324 325 324 324 324 324 324 325 326 326 327 327 327 326 326 326 326 325 326 325 325 325 325 325 324 324 322 321 320 322 322 322 323 322 323 323 323 323 321 322 322 322 321 322 322 322 322 322 323 323 325 324 323 324 318 308 310 309 309 322 319 318 317 315 312 312
301 302 303 304 304 304 305 305 306 307 307 307 309 310 312 315 317 319 321 322 324 324 323 323 324 324 325 325 326 327 327 327 326 325 325 325 326 326 325 324 324 324 325 324 324 324 323 322 322 322 323 325 326 327 321 311 315 321 323 322 321 320 319 320 321 322 323 324 323 324 325 316 311 309 307 302 300 300 302 312 318 318 314 312 312
300 300 301 302 303 303 303 303 304 304 305 306 307 308 309 311 313 316 318 320 322 322 322 322 323 323 324 325 324 324 325 325 326 326 326 325 325 325 326 324 324 324 324 324 324 323 323 322 322 323 324 324 324 321 302 302 303 308 319 322 320 319 319 320 321 322 323 325 326 325 328 319 314 309 311 299 298 297 297 297 297 297 302 319 313
298 299 300 300 300 301 301 302 303 303 304 304 306 306 307 308 309 309 312 316 320 321 321 321 322 323 324 324 324 323 323 323 324 324 324 324 324 324 324 324 323 324 325 325 323 322 322 323 323 324 323 322 322 313 301 298 298 301 309 319 319 318 319 320 320 321 322 321 320 322 323 323 323 322 322 319 306 297 295 296 295 295 292 290 292
297 297 298 299 299 300 301 301 301 301 302 303 304 305 305 307 308 309 310 310 310 312 315 318 320 321 322 324 323 322 322 322 322 322 322 323 322 322 323 323 322 324 324 322 321 322 322 321 321 320 320 320 320 309 302 299 297 298 301 311 319 320 321 322 321 320 319 318 319 319 320 322 320 310 314 319 322 313 295 292 293 293 292 292 291
297 297 297 299 299 300 301 301 301 301 302 303 304 303 305 307 307 308 309 309 309 309 311 312 315 317 320 321 321 321 321 322 322 321 321 321 321 321 323 324 323 323 322 322 322 322 322 320 319 319 319 320 321 308 301 299 297 296 297 302 321 322 322 320 320 320 320 319 319 318 318 319 319 318 318 318 318 318 310 306 305 305 305 301 293
296 296 296 298 299 300 300 301 301 301 302 302 302 303 304 304 305 306 307 308 308 308 310 310 310 311 312 315 318 320 321 321 322 321 321 320 320 321 322 323 323 322 322 321 321 321 321 321 321 321 322 320 321 301 298 297 296 295 294 299 323 322 320 320 319 319 319 318 318 319 318 317 316 313 310 307 316 315 313 311 309 309 309 309 311
297 297 298 298 299 299 300 301 301 301 301 301 301 303 303 303 304 304 305 307 307 307 307 308 309 309 310 310 311 312 315 318 320 321 320 321 322 322 322 322 322 323 323 322 322 322 321 321 321 322 322 321 328 294 296 296 296 295 294 316 320 318 318 316 316 317 317 317 317 317 317 315 313 309 298 291 300 314 313 311 310 310 309 306 302
298 298 297 298 299 299 299 300 301 300 299 300 301 301 302 302 303 302 302 304 306 306 306 307 307 308 308 309 310 310 311 313 316 318 319 320 321 321 322 323 322 322 321 320 321 321 321 320 320 321 321 322 322 300 295 296 295 293 300 318 318 315 315 315 315 316 315 315 315 315 315 314 311 307 294 292 294 297 312 310 309 309 308 307 304
297 298 298 299 299 300 300 300 299 299 299 300 300 301 301 301 302 301 301 302 302 303 305 305 306 307 307 308 309 309 310 310 312 314 316 318 320 321 322 322 321 321 320 320 321 320 321 321 321 320 319 318 318 302 292 294 293 293 304 317 315 314 314 314 314 314 313 309 305 297 308 313 310 306 291 292 292 304 311 310 309 308 307 306 305
297 297 296 297 298 298 299 299 299 298 299 300 300 300 300 300 301 301 301 301 303 302 303 303 305 306 307 307 308 309 310 310 310 312 315 316 318 320 321 322 321 322 322 321 320 320 320 320 319 318 311 317 317 305 292 293 293 295 307 315 314 314 312 312 312 311 310 308 305 301 294 301 305 299 289 292 291 300 311 310 309 308 307 307 306
297 297 297 297 298 298 298 298 298 298 299 300 299 299 299 299 300 301 300 301 302 302 302 303 304 305 306 307 308 308 309 310 310 311 313 315 317 319 321 321 321 321 321 321 319 319 319 319 319 319 318 316 318 317 302 292 295 296 300 314 315 313 312 311 311 309 309 308 305 303 297 289 289 289 289 290 291 292 309 311 310 309 308 305 306
295 295 295 296 296 297 296 297 298 298 298 299 298 298 298 299 299 299 300 301 302 303 303 303 303 304 304 305 306 307 308 309 310 310 311 313 314 315 318 320 320 320 320 320 319 319 318 318 318 319 318 318 318 317 306 293 294 296 297 300 316 314 314 312 310 309 309 308 306 304 302 291 289 289 290 290 291 291 294 309 308 306 304 301 299
296 295 295 295 295 296 297 297 297 297 298 298 297 297 297 298 298 298 300 301 302 302 302 302 302 302 303 304 305 307 308 309 309 311 311 311 313 314 317 319 319 319 320 319 319 318 317 316 316 316 316 317 315 307 310 294 293 295 296 292 311 316 314 313 310 309 308 308 307 304 301 293 288 289 289 290 290 292 293 302 298 289 288 290 302
295 295 295 294 295 295 295 296 297 297 297 297 297 296 297 297 297 298 299 300 300 301 301 301 301 302 302 303 304 305 306 307 308 309 309 309 311 313 314 316 317 317 318 318 317 316 316 314 313 313 315 316 314 310 301 302 293 293 293 294 301 308 298 311 310 309 308 307 307 303 296 289 289 289 290 290 291 290 293 295 287 288 289 287 292
295 295 295 294 294 295 295 296 297 297 297 297 297 296 296 296 297 299 299 299 299 299 299 299 300 300 301 301 302 303 305 306 306 307 308 309 309 311 312 313 313 314 315 315 315 315 315 314 312 311 312 313 312 311 299 297 297 290 291 293 295 296 299 310 311 310 309 307 304 302 296 288 289 289 288 289 289 291 294 287 288 288 288 289 300
294 294 295 294 294 294 295 295 296 297 297 297 296 295 295 295 297 298 297 298 298 298 298 298 299 299 300 301 302 302 303 304 305 306 306 306 308 310 310 312 312 311 311 311 312 314 312 311 312 310 308 308 310 309 305 296 292 290 290 290 291 292 293 297 310 309 309 306 295 289 287 288 288 288 287 288 289 288 286 287 288 287 289 300 300
295 295 294 294 295 295 295 294 295 296 296 296 297 296 295 296 297 297 297 297 297 297 297 297 297 298 299 299 300 300 301 302 303 305 305 304 305 307 308 309 310 310 310 310 310 310 310 311 311 311 309 308 309 308 305 299 295 294 292 289 290 291 291 291 295 297 289 288 288 288 287 287 288 291 298 299 297 295 288 288 287 289 302 299 298
294 294 294 294 294 294 294 294 294 296 297 297 297 297 298 298 298 298 298 298 297 297 296 296 296 297 299 299 299 299 300 301 302 304 304 303 303 305 307 306 309 309 309 308 308 309 309 310 309 310 309 308 308 307 305 303 303 302 300 298 299 297 291 292 296 296 293 294 292 293 294 291 292 289 292 291 292 290 293 294 299 300 299 298 297
295 295 294 294 294 293 294 294 294 296 296 297 297 297 298 298 298 298 298 297 297 296 296 296 296 297 296 297 298 292 295 299 300 301 301 302 304 305 305 306 308 309 309 309 309 308 308 309 309 309 309 308 308 308 307 306 305 304 303 303 303 301 303 303 301 300 300 298 297 291 292 297 297 297 297 298 298 299 297 296 298 298 297 296 293
294 294 294 293 293 293 294 294 295 296 296 297 297 297 298 298 298 298 298 296 296 295 295 296 296 296 296 297 297 298 298 298 300 300 301 302 304 304 303 304 307 312 312 312 309 308 307 307 308 307 307 307 307 307 308 299 306 296 300 302 302 302 303 302 298 294 300 299 298 297 296 297 297 295 295 295 298 297 295 296 297 298 298 298 297
294 294 294 295 294 295 294 295 296 297 297 296 297 297 298 298 298 298 298 296 296 295 295 294 295 295 296 296 297 297 298 298 299 299 300 302 292 291 301 306 306 294 290 292 296 308 309 310 307 304 306 305 306 308 294 292 292 292 293 293 294 295 295 298 293 291 295 297 295 296 296 296 295 295 295 294 295 295 293 294 293 290 294 295 293
293 293 294 294 294 295 295 295 296 297 296 297 297 297 298 298 298 298 297 296 295 294 293 293 293 294 294 295 296 296 298 299 299 299 300 299 303 300 287 285 290 295 293 291 293 293 294 294 306 306 301 288 289 289 290 292 291 291 291 291 290 290 290 290 290 295 296 296 296 295 295 295 295 295 295 294 294 293 293 293 293 293 294 292 291
Wind_Speed
11 12 13 13 12 12 13 12 12 13 12 13 14 13 12 10 10 10 9 9 8 7 8 8 7 6 5 4 4 4 3 4 3 3 2 3 3 5 6 4 4 3 3 3 4 4 3 3 4 3 3 4 5 1 4 3 1 2 3 3 4 4 4 3 4 4 5 5 3 5 3 1 3 2 2 2 2 2 2 2 3 3 4 3 4
12 12 13 13 11 13 12 12 14 14 15 15 15 15 12 11 10 10 9 10 8 8 7 6 5 5 4 5 4 4 5 4 4 4 3 4 4 4 5 5 4 4 3 3 3 3 3 3 3 3 4 4 2 3 5 7 4 3 3 4 2 3 3 3 3 4 6 5 7 5 3 2 2 3 4 4 2 3 3 3 3 3 3 2 3
13 12 13 13 14 15 13 12 13 14 14 14 13 12 11 10 8 8 8 9 8 8 6 6 4 3 3 4 3 4 3 3 4 4 4 5 5 5 5 6 6 5 4 4 3 3 3 3 3 3 3 3 4 4 5 6 6 6 5 3 4 3 3 3 3 4 2 2 3 3 5 4 2 3 5 5 4 4 2 3 2 2 3 3 3
14 14 14 15 15 14 13 13 12 12 12 11 12 13 10 7 8 8 8 8 7 6 5 4 4 5 4 3 2 1 4 4 4 4 5 5 5 4 5 5 6 6 7 6 4 4 3 3 3 3 3 3 3 4 5 5 5 6 5 5 4 4 4 4 3 3 4 4 6 5 4 5 7 5 6 5 5 5 4 3 2 3 3 3 2
12 15 15 15 16 16 15 13 12 12 11 10 9 10 7 7 8 8 8 8 7 7 5 6 6 6 5 5 4 4 4 3 3 4 4 5 5 4 5 5 5 5 5 6 6 5 4 3 3 3 3 3 3 4 4 4 6 5 5 5 5 4 5 4 4 3 4 2 1 5 1 1 1 5 6 6 3 5 5 5 4 4 4 4 3
13 15 16 16 16 14 14 14 13 12 8 6 6 6 8 8 9 8 8 7 7 8 8 6 5 5 5 6 6 5 4 4 3 4 5 5 5 5 5 4 4 4 4 5 6 6 6 5 4 4 4 3 3 3 4 4 4 5 6 5 5 4 3 5 4 3 3 3 2 1 0 2 4 9 7 6 5 5 4 5 6 6 5 5 5
12 13 15 16 16 15 15 11 7 2 8 12 14 14 11 5 5 7 6 5 5 7 6 5 6 5 7 6 6 5 4 3 3 3 3 4 5 5 5 4 4 4 4 5 5 5 4 4 3 2 3 3 3 2 3 3 3 3 5 5 4 4 3 4 5 4 3 2 2 1 2 4 7 6 3 7 6 5 4 5 6 7 7 7 6
13 14 15 15 15 15 12 11 15 14 13 12 13 13 12 15 16 14 8 6 3 2 4 4 5 5 6 6 4 4 3 4 4 3 3 3 4 4 4 4 4 5 5 5 6 5 4 4 3 2 1 2 3 3 3 3 3 3 3 2 3 3 4 3 4 4 4 4 2 3 4 1 2 2 1 3 5 6 7 7 7 7 7 7 6
13 13 14 14 14 13 12 14 10 13 10 11 10 10 10 11 14 13 11 12 11 8 2 2 3 4 5 4 3 2 4 5 4 4 4 3 4 3 3 5 5 4 4 5 5 6 5 4 3 3 2 2 3 3 3 3 4 5 5 4 4 3 3 2 3 4 3 4 4 4 3 4 3 3 2 7 3 6 7 7 7 7 7 6 6
10 11 11 12 12 10 13 12 7 6 8 8 7 6 9 11 12 12 10 7 7 8 7 5 4 4 4 3 4 3 4 4 4 5 4 4 4 4 4 3 4 5 4 4 5 4 4 3 3 3 2 1 2 4 4 4 4 5 5 4 4 3 2 3 3 3 3 5 4 4 4 3 4 4 5 4 4 5 6 7 7 7 7 5 4
8 10 10 10 9 9 12 9 10 13 13 16 16 14 10 4 11 11 9 8 7 6 5 3 2 3 4 2 4 4 4 4 5 5 5 5 5 5 4 3 3 5 4 4 4 4 4 3 3 4 4 3 3 3 3 4 4 4 4 4 4 3 3 3 3 3 3 4 4 4 4 4 3 4 5 4 3 4 6 7 7 7 8 7 5
9 10 9 8 7 10 12 9 12 11 7 11 10 9 9 12 7 8 10 8 8 8 6 4 1 1 1 3 4 4 5 5 5 6 6 5 5 5 4 5 4 5 5 5 4 4 4 4 4 4 4 4 4 3 3 3 3 3 3 3 4 3 3 3 4 5 4 5 3 2 2 2 2 3 3 2 3 4 5 6 6 8 7 6 6
9 9 9 9 9 10 11 12 13 14 11 13 14 14 11 5 7 7 8 5 5 7 7 7 4 2 0 1 3 4 5 4 4 5 5 4 4 4 4 5 5 6 5 6 5 5 4 4 4 4 4 4 4 4 5 4 4 4 4 4 5 5 5 4 4 5 5 4 4 2 2 2 1 2 1 1 1 4 5 6 6 6 6 6 6
6 7 8 8 9 10 11 12 11 12 6 6 9 13 13 14 12 7 9 3 3 1 4 7 7 6 4 3 1 2 4 3 1 3 3 3 4 4 4 5 6 6 6 6 5 5 5 5 5 6 6 5 5 5 4 4 4 5 5 6 6 6 6 6 6 5 5 4 3 2 3 3 3 3 2 1 3 4 5 5 5 5 5 5 5
5 6 7 8 9 11 10 12 11 12 12 9 9 8 11 14 13 13 10 10 12 8 3 3 5 6 6 5 5 5 5 3 1 2 3 4 4 4 4 5 5 6 6 6 5 6 6 6 6 6 6 6 5 5 5 5 4 4 6 5 5 5 5 5 5 5 4 4 4 3 4 4 3 3 1 1 3 3 3 4 4 6 4 3 4
6 8 8 9 10 11 11 12 12 11 14 10 6 8 11 13 14 14 13 13 11 10 8 6 4 7 9 8 5 3 2 3 4 2 2 4 5 5 4 4 5 5 5 5 5 5 6 6 6 7 6 6 5 5 5 5 4 4 5 5 5 4 5 5 5 5 5 5 5 3 3 5 3 3 3 3 3 2 3 4 3 3 5 5 3
7 7 8 11 11 12 13 14 12 11 11 10 7 9 12 14 15 15 13 9 9 11 12 12 12 9 6 5 4 4 3 4 4 4 3 4 5 4 3 3 5 5 5 4 5 5 5 5 6 6 6 6 6 5 5 5 4 4 5 5 5 4 4 5 4 5 5 4 4 4 5 5 5 4 5 4 4 2 3 2 3 2 2 3 4
7 8 8 7 7 8 9 9 8 7 10 12 10 10 11 12 15 15 12 11 10 12 12 11 9 8 9 9 7 7 6 7 6 6 6 5 6 7 4 1 4 5 4 3 5 5 5 5 6 6 6 6 5 5 5 5 5 5 5 5 5 5 5 4 4 5 4 4 4 4 4 5 4 4 5 4 4 3 2 2 0 1 2 1 3
7 6 6 5 4 5 7 9 9 9 9 11 11 11 12 12 13 12 13 12 12 10 10 9 10 7 7 9 9 7 7 8 7 7 6 6 6 6 9 4 2 5 5 4 5 5 5 6 6 6 6 6 6 5 5 5 5 6 6 6 5 5 5 5 5 5 4 5 5 5 4 5 4 4 3 4 3 3 4 3 3 3 3 3 3
5 5 5 5 5 5 7 7 8 10 11 11 12 10 12 11 13 12 11 11 11 11 10 10 10 9 9 7 7 7 8 8 8 8 6 4 5 6 8 8 5 4 6 5 5 6 6 6 6 7 7 7 6 6 5 6 6 6 6 6 6 6 6 6 6 5 4 5 5 5 4 4 3 3 3 3 3 2 2 3 4 4 4 3 1
7 6 7 8 7 8 9 8 8 9 10 10 10 12 11 9 10 12 13 12 11 10 10 9 9 9 9 9 9 9 10 8 9 8 5 4 4 5 6 6 6 5 6 7 6 6 7 7 8 7 8 7 7 6 5 6 6 6 6 6 6 5 6 5 5 4 4 4 4 5 4 4 2 2 3 3 3 3 2 2 2 3 3 2 1
7 7 7 7 9 10 10 10 9 9 10 11 10 9 10 9 10 10 10 10 10 10 10 10 9 9 10 8 9 10 10 8 8 7 5 4 2 3 5 5 6 6 5 6 7 6 6 7 7 8 8 8 8 7 6 6 6 6 6 4 5 5 5 6 4 4 4 2 2 3 4 3 2 2 1 3 4 3 3 4 3 1 3 2 1
8 7 8 8 10 10 10 11 11 11 11 11 9 8 8 8 8 8 9 9 9 9 9 8 9 10 11 10 9 9 9 9 8 7 7 6 5 5 6 6 6 5 5 5 7 7 7 7 7 7 8 8 8 8 6 6 6 7 6 5 4 4 5 5 4 4 5 4 3 2 3 3 1 2 1 2 1 1 1 3 2 2 2 2 2
10 9 9 9 9 9 9 10 10 10 11 11 10 10 9 8 8 9 8 8 8 7 7 7 8 9 10 10 9 9 11 11 9 7 7 6 6 5 6 6 7 6 7 4 6 7 8 7 7 7 7 7 7 7 7 6 7 6 6 6 5 4 4 3 3 4 4 4 3 3 3 3 3 2 2 1 2 1 2 2 2 3 3 3 2
11 11 11 11 12 12 11 10 11 10 11 10 10 10 9 9 8 8 8 7 7 6 6 7 7 8 10 10 12 12 12 11 10 8 8 7 6 5 5 6 6 7 7 7 6 6 7 8 7 8 8 8 7 8 7 6 6 5 5 5 4 4 3 2 2 1 1 2 2 3 3 4 4 3 3 3 2 2 3 2 2 2 3 3 3
12 12 14 14 12 11 12 11 11 10 9 11 10 10 9 9 8 6 7 7 6 5 5 5 6 8 8 9 10 10 10 11 10 8 8 7 6 6 6 6 6 7 7 6 7 6 6 8 8 8 8 8 8 7 7 7 7 6 5 4 4 4 3 3 3 3 3 3 3 4 4 4 5 5 5 4 3 5 4 3 3 3 2 2 2
12 12 12 12 14 14 14 14 12 11 10 9 9 9 9 8 8 7 6 6 4 4 4 4 5 5 6 7 7 8 8 8 8 8 7 7 7 6 7 6 6 6 7 7 8 8 6 7 8 8 8 8 8 8 7 7 7 7 6 5 4 3 3 3 2 3 3 4 5 5 6 6 6 6 6 6 6 5 4 5 5 4 4 3 3
12 13 14 15 15 15 15 14 13 11 11 11 10 9 8 7 7 7 6 5 4 2 3 3 4 4 4 4 5 5 6 6 6 7 7 7 6 6 6 6 6 6 7 8 8 9 8 7 8 8 8 8 8 8 8 8 7 7 5 4 3 2 1 1 1 2 3 4 4 5 6 6 6 7 7 7 7 7 6 6 6 5 4 4 5
14 14 14 15 15 14 15 14 13 14 14 13 11 11 9 8 7 7 6 5 4 3 3 4 3 3 4 4 5 5 5 5 6 6 6 7 6 6 6 6 6 7 6 7 8 9 9 10 9 9 9 8 8 7 7 7 7 6 5 4 3 4 5 4 4 4 4 4 5 8 6 6 1 5 8 6 6 6 4 7 7 6 6 5 4
14 14 14 14 15 15 15 15 15 15 14 13 12 11 10 8 7 6 6 5 4 2 2 2 3 3 3 4 4 4 5 5 6 7 7 7 6 6 7 7 7 8 8 8 8 9 10 11 11 11 9 7 6 4 5 6 2 3 3 4 2 2 5 6 6 6 6 4 6 8 5 8 6 3 3 5 6 7 6 7 6 4 6 6 8
14 14 14 14 14 15 15 15 15 15 14 12 11 11 10 10 8 7 6 5 4 3 2 1 1 1 0 1 2 3 3 4 4 5 6 7 8 7 7 8 8 8 9 8 8 9 10 10 11 10 9 6 4 4 11 9 7 3 2 3 3 2 7 7 6 6 6 6 6 5 2 8 6 7 8 9 8 7 8 8 6 7 6 3 7
13 13 13 13 14 14 14 14 14 13 13 12 11 11 11 10 9 8 7 6 4 3 2 3 1 1 1 1 2 2 3 3 4 4 5 5 6 7 8 8 8 9 8 8 9 10 9 9 8 8 7 5 3 3 10 10 8 7 5 5 6 8 7 7 6 5 5 5 4 4 4 3 3 4 4 6 8 9 4 1 3 5 6 9 9
12 13 13 13 13 13 13 13 12 12 12 13 12 11 10 10 9 8 7 7 6 5 3 2 2 2 1 1 1 1 1 2 3 3 3 4 5 7 8 8 9 8 7 8 10 10 9 8 5 5 5 5 7 8 11 10 10 10 8 6 6 7 6 5 4 4 3 3 3 2 2 2 2 3 5 4 3 7 8 8 9 9 10 9 9
12 12 12 12 11 11 11 12 12 12 12 11 12 11 10 9 8 8 8 7 6 6 6 6 5 4 3 2 1 1 3 2 3 3 3 4 5 6 6 6 6 8 9 9 10 10 8 9 9 10 9 9 10 13 15 13 13 13 12 9 6 6 5 4 3 3 2 2 1 1 1 1 2 1 2 1 1 4 6 6 6 6 6 7 7
8 9 10 10 10 11 11 12 12 11 11 11 12 12 10 10 9 9 8 7 7 7 7 7 7 7 6 4 3 3 3 3 4 4 4 5 5 5 6 6 6 7 9 9 11 11 10 9 10 10 11 11 11 13 16 15 14 13 11 8 6 5 5 4 4 3 3 2 2 1 1 2 3 3 4 5 0 4 4 5 6 6 6 5 5
8 8 8 8 9 10 10 10 9 10 10 11 11 11 11 10 10 9 8 7 7 6 7 7 6 6 6 6 6 5 4 4 4 5 6 6 7 6 7 7 7 7 7 8 9 10 10 10 11 12 11 12 4 12 12 13 14 13 12 8 8 6 6 6 5 5 4 4 3 2 3 4 4 5 5 6 6 3 6 7 7 7 6 6 6
8 8 8 8 8 8 8 8 8 9 10 10 10 10 9 9 8 8 8 7 7 7 7 7 7 7 7 6 6 6 5 5 5 5 6 7 8 8 8 7 7 8 9 10 10 10 9 9 10 10 10 6 2 6 11 13 13 14 10 9 8 8 8 8 6 6 5 5 4 4 2 4 5 5 4 4 5 5 6 6 6 6 5 5 6
8 8 7 7 6 6 6 6 7 8 9 8 8 8 8 8 8 8 9 8 8 8 8 8 8 8 8 8 7 7 6 6 5 5 6 6 7 7 8 8 9 9 10 10 9 9 7 7 7 6 4 5 4 5 6 9 11 14 12 8 8 8 9 7 7 6 5 6 7 9 8 4 5 5 3 3 5 6 4 5 5 5 5 5 5
8 9 9 8 8 8 8 8 8 9 9 9 9 8 8 8 8 8 8 8 8 8 9 9 9 9 9 8 7 7 7 7 6 6 5 6 6 7 7 7 8 8 9 9 8 8 8 7 7 6 6 5 3 6 8 8 10 15 11 9 9 8 9 8 7 7 6 6 6 8 12 9 7 5 4 5 7 6 3 3 4 4 4 4 4
8 9 8 7 7 8 8 9 9 9 9 8 8 8 8 8 7 8 8 7 7 8 9 9 9 9 8 8 8 7 7 7 7 7 6 5 5 6 6 7 7 8 8 8 8 8 9 7 6 8 7 7 7 6 10 11 14 15 17 11 9 9 8 9 8 8 7 7 7 6 7 8 8 8 8 9 10 11 2 3 2 3 2 3 3
9 9 8 8 8 7 8 8 7 8 8 7 7 7 8 7 7 7 7 7 7 7 8 8 9 9 9 9 8 8 8 8 7 7 7 6 5 5 6 6 8 8 7 7 7 7 7 6 6 7 7 8 10 10 9 14 14 15 13 8 9 8 9 8 8 8 7 7 7 6 6 5 7 9 10 11 11 12 10 5 5 6 7 6 4
7 7 7 8 8 7 8 8 8 8 8 8 8 8 8 8 8 8 9 8 8 8 8 9 9 9 9 9 9 9 8 7 7 7 7 7 6 6 5 6 7 7 8 8 8 8 8 7 6 6 7 10 8 11 10 11 14 13 11 5 5 8 7 8 7 7 7 7 7 7 7 6 8 10 10 11 11 11 10 6 7 8 7 6 2
8 8 8 8 8 7 8 8 8 8 7 7 8 8 8 8 9 10 9 9 9 9 9 10 10 10 10 10 10 10 8 7 7 8 8 7 8 7 6 6 7 7 8 8 8 7 8 8 8 8 10 11 10 9 13 12 11 10 5 2 1 8 4 6 7 7 7 7 7 8 8 7 9 10 10 10 11 11 9 8 7 7 5 1 7
7 8 8 8 7 7 7 7 7 7 7 7 7 8 8 8 10 9 9 9 9 10 10 10 9 10 11 11 11 10 9 8 9 8 8 8 7 8 8 8 9 9 8 8 8 8 8 9 10 9 8 8 9 9 7 9 9 7 6 4 10 9 3 3 6 6 6 8 8 9 9 10 10 10 10 10 10 10 8 8 6 5 4 6 4
7 7 7 8 7 8 8 8 8 8 7 7 7 7 9 10 9 9 10 10 10 10 10 10 11 11 11 11 10 10 10 10 9 8 8 8 7 7 8 8 9 10 10 10 10 10 11 11 10 9 8 8 8 8 7 7 10 8 7 8 10 10 8 6 6 7 6 7 13 15 14 11 12 12 14 13 11 9 8 6 5 5 7 4 1
7 7 8 8 7 7 7 8 9 8 7 6 6 7 9 9 8 9 9 10 10 10 10 11 11 11 12 12 12 12 12 12 11 9 9 8 8 7 7 9 9 10 11 11 11 12 12 12 10 10 9 9 9 8 7 6 7 9 8 9 11 12 14 15 14 12 16 17 15 13 13 13 13 11 8 6 6 7 7 7 5 7 5 1 2
8 8 8 8 8 7 8 9 9 8 7 8 8 8 9 10 10 11 11 12 11 11 11 10 11 12 12 12 13 12 11 11 12 10 10 10 9 8 7 8 9 10 11 11 11 12 12 12 12 11 10 10 9 9 9 9 8 8 8 8 10 10 13 14 11 10 11 10 11 10 7 6 8 9 10 10 8 8 7 7 5 3 1 1 1
7 8 8 8 7 8 8 8 8 9 9 9 10 11 11 11 11 12 12 12 13 13 14 14 14 13 12 12 13 13 13 12 12 11 10 10 10 9 8 6 7 8 9 9 9 10 12 11 11 10 10 10 10 10 10 10 10 10 9 9 9 9 9 8 9 9 9 10 9 9 9 7 7 7 7 6 6 4 2 1 1 0 0 2 0
8 8 8 7 7 8 8 8 8 8 9 9 10 11 12 12 12 12 13 13 14 15 14 15 14 13 14 13 12 13 12 12 12 12 12 11 10 10 10 9 7 5 4 4 4 2 3 5 2 5 10 10 9 9 10 9 10 12 11 11 10 10 9 9 9 12 10 9 8 8 5 6 5 4 3 2 3 3 1 1 1 1 1 1 1
8 7 7 6 6 6 7 8 8 8 9 10 11 12 12 13 13 13 14 14 15 14 15 14 13 13 12 12 11 12 12 12 12 13 12 10 5 4 2 6 4 9 9 7 6 2 3 2 1 2 5 2 5 5 12 13 12 11 10 12 11 11 10 11 15 15 10 8 6 5 5 4 4 3 3 2 2 1 1 1 2 1 2 1 2
9 8 6 6 7 7 8 9 9 9 10 11 12 13 13 14 14 14 14 14 14 14 13 13 13 13 13 12 12 12 11 11 11 12 12 13 9 5 1 2 6 4 8 8 3 3 7 7 5 1 4 11 14 12 11 13 14 11 11 12 13 15 18 19 16 10 7 6 6 6 5 4 3 3 2 2 1 1 1 1 1 0 0 0 1
Wind_Direction
179 176 177 176 174 175 180 178 186 190 192 194 194 197 196 189 164 155 151 152 168 179 179 183 184 183 183 189 179 163 160 137 122 113 116 81 107 133 139 149 157 173 166 175 157 162 170 152 151 154 142 192 233 49 88 86 194 153 127 142 152 148 131 146 143 175 170 154 144 148 141 109 115 154 108 83 80 76 71 73 56 50 20 8 20
176 179 181 176 179 177 183 183 186 192 194 195 198 196 198 193 179 150 144 157 169 189 185 187 187 183 177 178 170 154 158 171 138 128 122 121 127 125 129 131 139 149 158 143 157 161 149 148 141 163 188 192 166 140 120 150 164 162 152 139 140 143 122 136 148 207 194 174 200 146 125 128 159 170 146 98 113 111 113 105 96 66 54 22 11
179 184 182 185 183 183 183 191 192 194 191 194 189 187 192 189 175 145 145 156 175 189 188 180 174 156 178 143 173 140 89 65 93 98 131 135 136 135 130 134 144 140 139 142 148 162 157 152 154 158 163 154 159 145 140 144 158 167 172 164 140 125 133 159 171 260 327 263 278 159 173 153 151 108 96 99 91 79 62 79 87 95 76 60 29
181 188 190 190 191 189 190 189 192 188 192 185 180 179 179 171 170 150 146 155 163 188 197 158 132 117 96 118 101 114 122 108 102 119 115 127 129 128 128 139 138 138 142 144 138 125 143 155 151 151 152 161 164 160 154 153 168 168 171 171 170 157 172 150 174 210 240 198 225 176 192 171 158 170 118 92 92 93 88 83 75 89 97 89 103
182 190 193 196 198 196 193 194 190 185 183 175 171 162 151 160 156 149 146 155 160 167 173 138 128 124 116 116 119 108 130 148 150 134 128 115 116 122 117 117 121 122 127 127 126 131 138 145 144 143 146 158 171 156 161 164 179 183 175 178 189 196 171 159 177 199 249 281 38 284 171 204 108 114 121 98 108 110 97 95 74 74 68 71 74
190 190 195 199 203 200 202 202 200 191 169 146 132 131 141 155 158 151 149 152 159 171 169 152 147 153 158 166 173 179 168 177 169 144 149 154 119 116 121 123 115 117 122 122 124 129 134 139 144 150 148 163 173 167 167 168 188 181 175 192 189 210 216 168 180 187 229 247 248 168 244 1 154 165 179 124 106 67 68 69 94 82 78 70 61
191 194 196 199 203 205 205 204 204 164 73 61 47 32 30 47 142 131 132 135 155 167 149 148 161 177 181 185 185 185 171 147 99 122 128 112 124 137 122 128 126 122 117 123 126 127 129 134 143 171 161 174 169 180 168 174 183 192 162 189 181 174 203 186 178 171 183 209 234 331 347 151 219 172 166 140 134 100 75 91 78 72 69 70 73
186 193 199 200 200 205 195 79 67 80 90 98 91 88 72 59 41 19 25 41 57 126 140 163 182 192 192 199 189 185 152 120 134 124 103 125 130 137 139 134 135 127 133 134 133 130 122 120 122 108 160 155 191 179 176 182 178 143 155 162 150 160 185 190 178 164 200 147 178 191 173 182 164 323 167 185 145 136 121 94 86 84 82 77 72
188 189 198 199 201 196 112 112 148 133 137 131 133 131 117 94 90 82 52 44 30 12 12 183 224 209 202 190 175 119 122 137 143 147 145 138 136 137 124 119 112 103 115 125 129 121 125 114 123 140 142 160 173 147 150 137 141 137 146 150 153 152 174 138 176 170 193 142 166 166 176 178 167 189 220 235 168 139 127 120 114 103 95 82 78
196 197 193 201 203 170 129 158 146 62 64 71 72 90 116 117 108 97 95 89 83 48 0 313 268 241 217 198 161 146 144 141 152 146 154 159 144 141 136 134 126 124 115 117 118 110 101 115 124 113 124 100 69 91 109 119 125 132 131 136 134 148 142 147 168 154 155 157 176 158 174 165 172 173 196 199 163 146 141 139 135 133 113 91 91
198 202 201 196 194 143 126 121 116 74 58 42 30 9 6 71 124 117 123 118 108 99 84 49 333 274 254 209 181 158 151 157 157 164 163 171 155 155 146 126 125 119 123 114 104 97 92 77 86 102 97 85 96 110 105 114 121 123 121 122 130 141 136 123 130 158 150 159 175 175 172 174 161 162 165 176 164 148 139 140 142 122 116 113 85
187 193 190 187 161 139 129 125 105 89 74 85 90 59 16 352 349 127 137 146 136 133 128 102 103 119 291 224 202 180 171 179 176 170 172 166 156 147 139 136 131 128 125 118 106 98 97 94 95 100 88 84 85 82 84 101 107 112 126 133 127 129 121 146 145 148 160 152 176 144 118 115 147 188 173 168 188 145 154 144 141 135 134 117 121
185 179 165 170 166 149 134 116 124 148 172 150 137 139 133 112 11 3 350 355 114 127 135 136 135 117 61 226 221 193 194 204 183 171 165 155 152 141 142 131 138 134 125 116 106 107 111 114 111 105 103 86 68 80 79 75 88 105 107 118 124 139 143 147 139 132 142 148 133 120 126 121 106 25 62 190 163 143 157 160 140 153 125 135 139
165 154 157 171 167 146 140 127 125 130 154 181 151 145 145 141 146 186 194 219 347 356 154 142 131 122 114 101 5 327 306 286 194 159 156 138 134 136 133 128 125 123 119 110 110 109 95 91 88 83 81 84 82 85 83 85 97 110 105 102 108 104 110 110 111 111 103 101 112 114 74 76 56 60 70 122 155 177 169 161 147 127 149 145 146
145 136 138 152 147 137 146 132 136 134 176 202 172 158 137 137 154 184 198 182 185 171 155 131 133 140 153 154 174 169 177 175 105 139 149 127 111 108 109 122 122 119 114 107 101 100 102 96 93 93 87 84 84 85 92 94 76 82 96 94 90 98 96 96 95 100 101 93 74 79 95 89 86 95 94 101 157 174 165 150 162 143 149 139 124
123 122 134 133 136 142 146 147 141 152 169 183 189 150 149 147 157 179 190 187 181 154 141 142 190 172 173 176 179 131 160 156 132 140 131 123 117 112 110 104 109 110 105 104 98 103 107 110 104 96 94 93 92 97 102 95 82 90 92 84 87 85 96 98 103 94 85 86 92 95 99 89 89 87 94 56 46 93 128 148 163 160 155 143 149
124 135 135 138 145 155 153 148 156 165 166 154 158 170 164 151 157 172 186 185 165 149 157 177 185 180 148 135 139 152 168 119 111 116 136 125 107 75 40 73 116 111 98 93 98 96 99 97 100 99 96 97 99 99 99 94 94 93 94 94 88 84 83 80 76 91 97 101 89 84 91 99 88 76 71 84 86 95 113 158 220 199 214 140 164
124 126 130 129 119 109 89 125 137 140 143 139 156 182 172 157 158 166 171 171 170 165 167 174 166 138 155 157 156 168 147 126 133 166 182 175 149 128 124 240 128 111 109 103 102 102 101 104 103 98 96 100 105 105 99 101 107 101 102 100 92 98 103 101 100 104 102 102 105 102 97 92 74 77 75 70 84 83 108 130 127 90 277 238 151
101 110 114 117 84 91 112 119 123 136 135 136 155 172 174 162 159 160 166 175 171 170 168 169 170 153 160 173 172 164 149 146 158 184 195 178 170 156 139 127 152 128 129 128 128 120 118 112 109 106 105 107 110 110 117 112 108 110 112 109 112 113 106 107 104 105 111 115 111 106 105 99 96 90 94 91 96 108 111 110 86 60 57 33 96
105 96 89 84 72 81 102 112 132 143 144 146 149 164 175 164 155 156 162 171 170 170 169 168 172 168 175 165 159 160 158 163 167 183 186 175 189 155 129 140 165 148 144 154 146 136 135 132 124 121 121 118 119 118 119 120 121 120 125 121 120 126 120 119 124 129 128 128 129 127 120 112 122 135 113 99 89 69 46 84 92 92 84 57 41
68 75 78 71 79 82 83 86 96 113 127 136 145 155 163 159 164 155 158 167 174 167 164 165 169 170 167 171 161 159 169 173 172 180 190 195 212 137 135 149 155 173 167 162 158 152 147 144 141 139 132 129 126 125 126 130 128 127 119 119 134 130 125 119 118 122 126 145 142 127 128 124 127 106 115 133 117 111 120 93 92 113 103 97 84
72 64 66 57 60 62 73 77 81 87 104 117 129 144 156 161 158 155 154 163 169 170 173 170 172 169 183 176 164 170 176 177 167 178 190 189 168 141 145 163 168 170 183 168 160 156 156 157 150 144 140 135 136 133 138 136 130 125 120 128 135 136 120 119 136 134 120 109 126 139 127 127 141 119 176 173 139 168 158 159 139 131 111 99 340
70 65 64 65 61 62 66 70 84 95 101 106 112 121 131 135 138 147 156 165 170 172 173 171 174 174 184 192 186 186 189 184 179 185 193 180 168 171 170 176 175 167 184 183 163 162 165 161 155 153 149 147 145 141 142 139 133 138 134 129 130 124 128 131 144 144 151 132 160 148 153 145 162 164 211 43 66 210 227 97 91 110 108 128 129
65 62 60 61 68 68 66 64 66 73 76 83 95 109 114 120 126 129 135 146 151 156 163 165 173 177 175 187 197 200 205 200 192 195 188 183 173 177 174 179 178 173 176 183 172 174 165 165 160 156 153 155 151 150 151 152 145 140 143 141 142 142 146 151 148 161 148 160 175 182 173 180 180 193 210 152 203 139 261 121 164 145 157 151 128
64 63 60 60 60 59 59 62 64 73 83 80 89 98 106 110 116 119 121 132 133 142 155 160 172 184 186 188 191 196 199 201 203 201 186 183 177 178 178 183 173 177 176 174 181 182 175 170 167 169 164 163 160 159 154 148 142 146 140 138 151 142 146 170 169 170 184 235 203 223 217 194 199 220 202 224 188 222 250 176 217 185 193 150 180
65 63 59 54 53 56 60 61 66 67 88 102 99 93 85 82 74 84 111 118 122 136 153 161 167 181 189 197 198 201 204 207 209 207 190 181 179 180 180 187 184 178 173 175 178 187 190 178 177 176 169 166 164 161 162 155 145 145 140 138 140 148 157 164 168 205 211 206 233 241 235 227 218 229 233 223 230 216 226 241 230 255 222 152 224
69 67 69 68 61 55 56 57 60 67 76 84 92 95 95 97 96 97 101 108 109 132 149 169 183 189 190 194 198 204 210 215 213 208 192 183 180 176 185 187 189 182 174 179 183 184 194 193 182 176 172 169 167 168 159 156 153 145 141 140 146 153 164 167 196 220 218 229 240 241 243 247 244 243 250 251 236 229 237 247 246 225 250 213 219
75 71 68 65 62 58 56 56 58 62 64 73 75 79 84 90 108 111 105 100 105 140 153 176 182 201 218 212 215 222 225 224 219 208 200 194 184 183 191 184 188 191 188 187 189 188 181 197 181 179 175 168 164 167 163 162 157 146 139 137 129 123 80 39 282 272 263 263 255 249 251 251 249 245 249 252 254 245 231 234 230 223 233 227 243
72 69 68 66 65 61 57 54 54 54 55 53 56 62 67 78 78 85 90 95 116 134 150 169 177 200 215 237 241 242 242 234 225 224 215 206 207 203 202 197 191 196 196 197 191 187 183 188 180 179 171 170 174 166 166 168 155 154 149 124 65 26 7 357 330 310 309 315 296 291 266 255 295 37 24 354 344 352 287 247 236 219 221 223 265
73 71 69 67 66 63 60 57 51 49 49 51 51 49 49 51 61 63 71 76 89 98 151 163 172 180 194 219 227 236 239 234 236 235 235 229 219 212 211 211 209 207 198 200 195 191 190 186 183 180 176 166 159 147 88 79 108 164 137 108 86 3 325 320 317 307 291 260 271 258 248 101 99 184 224 249 265 274 288 300 314 254 201 218 230
72 69 67 66 63 60 58 55 54 51 48 48 50 53 49 48 45 49 53 60 85 87 116 142 156 131 161 209 227 243 257 250 232 241 243 242 238 232 234 234 223 209 200 190 193 194 193 191 186 177 166 163 163 155 148 166 168 154 167 155 133 243 261 266 271 279 281 277 254 260 273 146 171 186 208 212 230 231 239 262 285 346 1 287 239
68 63 61 60 58 54 51 51 49 48 49 46 46 48 48 49 45 46 47 47 59 67 86 106 108 144 163 207 210 208 231 245 258 253 250 252 253 246 234 232 226 212 194 179 183 193 192 188 181 173 171 180 213 204 183 182 172 164 183 165 185 202 218 238 262 270 271 277 288 295 293 299 298 9 333 193 199 209 218 130 73 65 54 46 40
57 55 53 51 52 51 47 42 44 39 38 39 37 41 41 38 45 43 48 53 53 44 43 37 17 348 69 109 272 283 284 283 280 273 276 273 262 248 239 230 221 211 201 194 193 188 187 184 193 199 207 208 220 228 212 183 168 171 178 195 198 197 206 223 226 232 256 271 289 299 304 302 93 145 225 241 210 134 96 95 103 96 76 67 61
40 36 35 36 39 40 38 36 35 32 28 28 29 24 25 33 33 39 37 37 47 49 43 40 39 41 15 350 323 287 291 281 269 268 266 264 258 250 248 239 224 209 218 210 200 199 194 198 205 216 220 224 228 206 199 185 171 173 185 207 220 193 203 204 194 187 187 198 160 252 251 169 86 96 30 28 239 128 132 141 152 160 136 115 108
60 44 33 29 27 30 28 27 24 22 20 18 21 14 9 19 20 25 25 27 28 37 42 38 35 26 22 19 345 322 286 276 267 260 262 259 252 254 248 238 233 230 228 222 220 216 214 214 218 222 228 232 235 177 176 172 167 164 172 207 213 185 177 158 152 145 148 126 124 133 151 105 97 60 43 349 93 136 142 146 153 151 144 138 93
61 61 50 41 32 29 28 21 18 19 21 19 13 5 6 4 6 9 4 11 14 22 31 26 23 20 15 10 0 345 321 292 270 263 258 250 245 238 242 241 241 235 231 231 227 223 220 225 228 230 236 240 195 150 162 162 158 158 166 200 199 173 161 152 151 149 141 129 113 110 108 104 91 90 48 347 343 114 143 141 139 136 129 107 80
62 59 55 38 33 33 25 20 24 23 21 13 8 360 358 356 0 353 355 353 1 9 10 8 5 8 3 357 353 342 339 316 309 294 272 264 258 248 240 239 239 241 241 234 230 227 237 243 240 236 240 258 203 154 160 162 157 161 172 206 174 168 154 151 143 136 120 86 59 25 92 108 101 87 33 341 357 312 142 149 146 148 141 135 126
53 42 42 46 28 25 38 26 15 24 22 9 356 356 348 353 355 351 351 347 356 359 356 355 353 351 346 348 344 341 333 326 306 295 296 291 278 261 251 243 242 241 239 236 234 234 226 222 221 219 222 203 165 131 168 166 162 169 196 194 168 163 147 140 133 121 106 88 59 25 359 96 97 97 61 6 346 303 153 146 152 154 157 148 135
38 29 17 17 14 10 5 13 14 16 10 360 353 348 348 346 349 346 343 342 349 350 348 347 344 340 335 335 337 338 335 326 314 299 294 287 279 271 261 247 237 238 240 232 222 225 221 216 206 206 178 159 158 159 175 180 181 190 208 182 182 159 151 146 141 131 124 117 95 60 37 40 67 81 66 48 7 323 164 165 163 187 182 168 134
26 26 9 2 4 3 8 11 10 7 0 354 349 347 344 337 340 337 331 333 339 337 332 329 329 328 325 322 322 326 330 327 318 311 295 284 278 272 259 251 242 239 236 228 220 221 221 217 197 198 175 168 196 193 182 187 197 199 207 194 179 170 155 150 152 146 143 131 118 102 72 57 78 78 68 55 40 15 20 127 208 218 207 140 127
17 15 2 359 1 4 2 3 2 357 354 349 346 343 336 335 330 322 325 326 323 317 316 316 312 310 310 313 316 317 321 319 312 309 303 283 269 260 251 240 237 234 232 220 211 208 207 206 194 204 198 191 205 196 162 185 196 207 215 234 172 171 159 160 153 155 154 148 143 123 110 83 90 83 77 68 58 42 25 54 42 57 49 38 344
15 9 10 359 351 354 354 354 354 349 347 344 342 336 328 331 322 319 325 322 317 318 314 307 303 302 305 305 307 311 314 310 308 307 307 291 271 257 243 233 232 226 221 220 206 193 192 187 172 172 194 202 169 162 157 190 201 200 208 277 279 170 163 160 159 162 153 145 136 134 128 109 95 87 82 77 69 60 52 74 66 70 49 24 325
0 357 13 358 344 347 348 344 343 345 343 338 333 324 320 318 315 316 317 317 315 308 306 305 304 302 299 298 296 298 299 301 303 304 299 293 282 257 237 230 224 220 212 211 204 197 185 171 163 163 176 178 165 159 154 177 190 187 180 286 67 106 74 164 165 156 146 132 123 115 111 115 105 99 92 89 92 98 87 86 97 85 84 314 268
355 354 359 345 338 342 338 342 340 344 339 336 328 321 321 317 310 316 315 309 303 300 298 293 289 286 286 286 287 284 283 283 287 293 293 287 279 269 250 230 223 217 208 199 197 193 184 169 163 156 153 151 155 150 140 144 148 145 139 135 101 104 97 177 158 153 137 134 138 133 126 126 111 101 90 77 67 69 94 115 117 138 189 240 265
348 347 353 339 341 338 337 340 344 342 340 337 334 324 324 318 320 323 315 310 307 304 297 290 284 280 277 276 274 275 276 275 272 270 275 278 275 264 252 240 227 222 218 211 203 198 195 199 172 159 155 159 159 149 143 116 119 123 121 113 105 93 72 68 134 132 121 96 91 104 120 122 116 110 108 105 97 100 116 126 149 199 239 241 287
342 345 350 337 337 337 341 344 341 343 338 331 322 315 309 310 311 307 302 300 301 302 301 297 295 291 286 280 274 270 266 264 263 258 257 264 269 267 257 242 231 227 223 220 216 207 204 194 179 170 160 159 159 152 137 127 122 115 101 91 92 82 70 57 63 82 89 103 111 116 118 124 130 140 153 137 126 127 148 162 187 239 245 357 325
343 346 342 338 342 341 348 345 339 339 346 334 329 321 318 321 322 317 313 307 302 294 289 288 289 290 285 275 270 268 266 260 251 248 249 249 247 248 249 249 240 231 228 227 220 211 209 199 188 172 162 159 159 152 146 147 148 139 134 130 112 98 100 102 103 112 111 109 127 133 127 104 87 71 74 93 120 149 173 188 192 200 33 350 8
341 340 345 336 341 342 340 340 341 340 337 333 328 326 323 321 318 315 311 308 303 302 300 296 291 286 281 286 284 273 267 265 263 257 253 245 234 234 240 241 245 240 236 229 226 215 215 208 192 172 165 163 162 162 159 160 158 152 149 148 140 141 154 154 140 140 137 133 130 114 123 138 139 150 155 170 169 175 163 130 8 81 104 71 344
336 343 343 336 341 338 336 333 332 329 328 323 321 317 315 314 311 310 306 300 295 291 287 287 288 286 284 280 277 277 272 267 262 258 250 243 233 230 232 237 234 246 268 247 232 265 19 8 2 171 165 165 165 164 168 163 157 153 152 153 158 162 158 156 135 129 131 139 146 157 161 161 171 171 173 172 157 163 139 107 79 290 192 210 266
338 336 327 325 334 328 325 322 324 325 320 318 314 313 313 313 311 307 303 297 292 288 284 281 280 282 282 280 275 271 267 264 261 257 258 245 51 357 324 231 207 97 75 41 360 256 114 189 6 360 19 112 159 145 109 113 122 130 130 134 146 153 141 125 124 139 148 150 166 168 167 172 166 174 174 169 167 162 164 163 131 89 255 16 347
330 326 328 331 321 321 322 323 323 324 320 317 314 312 311 310 309 305 301 296 293 289 283 278 275 271 276 281 280 278 274 271 267 261 251 250 227 179 77 348 318 124 154 143 119 66 114 106 77 101 70 45 55 80 118 133 135 138 135 136 131 118 118 129 140 149 164 167 167 172 169 168 171 167 171 141 130 158 169 176 146 171 203 199 240